Regional Weather Roundup
Issued by NWS Nashville, TN

Home | Current Version | Previous Version | Text Only | Print | Product List | Glossary On
Versions: 1 2 3 4 5 6 7 8 9 10 11 12 13 14 15 16 17 18 19 20 21 22 23 24 25 26 27
000
ASUS44 KOHX 111010
RWROHX
MIDDLE TENNESSEE HOURLY WEATHER ROUNDUP
NATIONAL WEATHER SERVICE NASHVILLE TN
400 AM CST SUN DEC 11 2016

NOTE: "FAIR" INDICATES FEW OR NO CLOUDS BELOW 12,000 FEET WITH
NO SIGNIFICANT WEATHER AND/OR OBSTRUCTIONS TO VISIBILITY.

* THESE REPORTS ARE NOT UNDER NWS QUALITY CONTROL AND MAY NOT
  REPORT WEATHER SUCH AS PRECIPITATION AND FOG.


TNZ005>011-023>034-057-059-062>066-078-080-111100
...NORTHERN MIDDLE TENNESSEE...

CITY           SKY/WX    TMP DP  RH WIND       PRES   REMARKS
CLARKSVILLE    CLOUDY    33  17  51 S5        30.28F WCI  29
CROSSVILLE     CLOUDY    32  16  51 VRB6      30.28F WCI  26
GALLATIN       CLOUDY    25  19  80 CALM      30.34F
LEBANON        CLOUDY    23  18  81 CALM      30.30R
NASHVILLE      CLOUDY    28  17  63 E5        30.31F WCI  23
PORTLAND       CLOUDY    34  18  51 S12       30.27F WCI  25
SMYRNA         CLOUDY    24  20  84 SE3       30.34R
SPRINGFIELD    CLOUDY    36  16  44 S9        30.27F WCI  29
WEST NASHVILLE CLOUDY    27  18  69 E5        30.30F WCI  21
$$
TNZ056-058-060-061-075>077-079-093>097-111100
...SOUTHERN MIDDLE TENNESSEE...

CITY           SKY/WX    TMP DP  RH WIND       PRES   REMARKS
COLUMBIA       CLEAR     25  25 100 CALM      30.28F
FAYETTEVILLE   CLEAR     32  16  51 S9        30.30F WCI  24
MCMINNVILLE    CLEAR     21  18  86 CALM        N/A
MURFREESBORO   CLOUDY    24  18  78 CALM      30.32
SHELBYVILLE    CLEAR     32  18  55 SE3       30.32R
TULLAHOMA      CLEAR     30  12  47 S6        30.30F WCI  24
WINCHESTER     CLEAR     30  18  59 SE7       30.31F WCI  23
$$


...KEY TO REMARKS...
VSB - VISIBILITY IN MILES
WCI - WIND CHILL INDEX
HX  - HEAT INDEX





USA.gov is the U.S. government's official web portal to all federal, state and local government web resources and services.